Location: Burland Observatory
(39.4088°N, 105.4217°W)
Time: 00:37:10
(UTC-07:00)

SR - All Passes

Search period start: 08 December 2019 00:00
Search period end: 18 December 2019 00:00
Orbit: 573 x 882 km, 66.7° (Epoch: 07 December)

Date Brightness Start Highest point End Pass type
(mag) Time Alt. Az. Time Alt. Az. Time Alt. Az.
08 Dec - 09:34:12 10° SSW 09:39:31 69° ESE 09:45:17 10° NNE daylight
08 Dec - 11:18:05 10° W 11:22:15 21° NW 11:26:36 10° N daylight
08 Dec - 18:16:32 10° NNW 18:22:08 44° NE 18:27:26 10° SE visible
08 Dec - 19:59:10 10° NW 20:04:00 28° WSW 20:08:35 10° SSW visible
09 Dec - 08:45:17 10° S 08:50:04 34° ESE 08:55:13 10° NE daylight
09 Dec - 10:27:07 10° WSW 10:32:08 36° NW 10:37:29 10° NNE daylight
09 Dec - 17:27:19 10° N 17:32:06 25° NE 17:36:42 10° ESE visible
09 Dec - 19:08:56 10° NW 19:14:37 56° WSW 19:19:56 10° S visible
10 Dec - 07:57:26 10° SE 08:00:50 17° ESE 08:04:23 10° ENE daylight
10 Dec - 09:36:51 10° SW 09:42:15 66° WNW 09:48:04 10° NNE daylight
10 Dec - 11:22:52 10° WNW 11:25:35 13° NW 11:28:21 10° N daylight
10 Dec - 16:38:31 10° N 16:41:51 15° NE 16:45:06 10° ENE daylight
10 Dec - 18:19:08 10° NNW 18:25:01 77° ENE 18:30:30 10° SSE visible
10 Dec - 20:03:20 10° WNW 20:06:18 15° WSW 20:09:11 10° SW visible
11 Dec - 08:47:16 10° SSW 08:52:36 65° ESE 08:58:21 10° NE daylight
11 Dec - 10:30:58 10° W 10:35:15 22° NW 10:39:45 10° N daylight
11 Dec - 17:29:39 10° NNW 17:35:11 41° NE 17:40:24 10° SE visible
11 Dec - 19:12:11 10° NW 19:17:06 30° WSW 19:21:45 10° SSW visible
12 Dec - 07:58:25 10° S 08:03:10 32° ESE 08:08:15 10° NE daylight
12 Dec - 09:40:04 10° WSW 09:45:11 38° NW 09:50:36 10° NNE daylight
12 Dec - 16:40:27 10° N 16:45:07 24° NE 16:49:36 10° E daylight
12 Dec - 18:21:59 10° NW 18:27:42 59° WSW 18:33:01 10° SSE visible
13 Dec - 07:10:43 10° SE 07:13:57 16° ESE 07:17:18 10° ENE daylight
13 Dec - 08:49:53 10° SW 08:55:19 70° WNW 09:01:10 10° NNE daylight
13 Dec - 10:35:38 10° WNW 10:38:34 14° NW 10:41:35 10° N daylight
13 Dec - 15:51:44 10° N 15:54:51 14° NE 15:57:55 10° ENE daylight
13 Dec - 17:32:13 10° NNW 17:38:05 73° ENE 17:43:32 10° SE visible
13 Dec - 19:16:13 10° WNW 19:19:25 15° WSW 19:22:31 10° SW visible
14 Dec - 08:00:21 10° SSW 08:05:41 61° ESE 08:11:25 10° NE daylight
14 Dec - 09:43:52 10° W 09:48:17 23° NW 09:52:54 10° N daylight
14 Dec - 16:42:45 10° NNW 16:48:14 39° NE 16:53:22 10° ESE daylight
14 Dec - 18:25:11 10° NW 18:30:12 31° WSW 18:34:54 10° S visible
15 Dec - 07:11:34 10° SSE 07:16:16 31° ESE 07:21:15 10° NE daylight
15 Dec - 08:53:02 10° WSW 08:58:13 40° NW 09:03:43 10° NNE daylight
15 Dec - 15:53:35 10° N 15:58:09 23° NE 16:02:31 10° E daylight
15 Dec - 17:35:03 10° NW 17:40:47 63° WSW 17:46:06 10° SSE visible
16 Dec - 06:24:00 10° SE 06:27:03 15° ESE 06:30:11 10° ENE visible
16 Dec - 08:02:54 10° SW 08:08:22 74° WNW 08:14:15 10° NNE daylight
16 Dec - 09:48:26 10° WNW 09:51:34 15° NW 09:54:48 10° N daylight
16 Dec - 15:04:57 10° N 15:07:51 14° NE 15:10:40 10° ENE daylight
16 Dec - 16:45:19 10° NNW 16:51:08 69° ENE 16:56:33 10° SE daylight
16 Dec - 18:29:06 10° WNW 18:32:31 16° WSW 18:35:48 10° SW visible
17 Dec - 07:13:26 10° S 07:18:45 58° ESE 07:24:28 10° NE daylight
17 Dec - 08:56:46 10° W 09:01:18 24° NW 09:06:03 10° N daylight
17 Dec - 15:55:53 10° NNW 16:01:15 37° NE 16:06:19 10° ESE daylight
17 Dec - 17:38:12 10° NW 17:43:17 33° WSW 17:48:03 10° S visible
